World > North America > United States > New Jersey

Wantage Township, New Jersey Regional Weather

Lat: 41.24N, Lon: 74.6W
Wx Zone: NJZ001
Warning NWS WEATHER ALERT - HARD FROST ADVISORY (More Info. Click Here) Warning
Feedback

Wantage Township, NJ Regional Weather

Expires:201910181100;;887321
ASUS41 KOKX 181014
RWROKX

Regional Weather Roundup
National Weather Service New York NY
600 AM EDT FRI OCT 18 2019

Note: "FAIR" indicates few or no clouds below 12,000 feet with no
significant weather and/or obstructions to visibility.


NJZ001-105-106-008-010-013-015-019>022-104-181100-
New Jersey
  
CITY           SKY/WX    TMP DP  RH WIND       PRES   REMARKS
Newark/Liberty MOCLDY    52  39  61 NW16G24   29.74R                  
Teterboro      MOCLDY    51  35  54 NW12G22   29.73R                  
Caldwell       CLOUDY    52  39  61 NW15G25   29.74R                  
Somerville     CLOUDY    51  39  63 NW14G21   29.74R                  
Linden         CLOUDY    51  38  60 NW9G21    29.75R                  
Perth Amboy      N/A     52 N/A N/A NW13G20     N/A                   
Sussex         CLOUDY    49  38  65 VRB7      29.76R                  
Andover          N/A     48  38  68 NW9       29.76R                  
Trenton        CLOUDY    49  39  68 W6        29.77R                  
Millville      FAIR      44  38  79 W7        29.82R                  
Atlantic City  FAIR      49  38  65 W10       29.79R                  
Wrightstown    FAIR      47  39  73 W7        29.77                   
Toms River     NOT AVBL                                               
Belmar         NOT AVBL                                               
$$
 

SKY/WX - Weather  TMP - Temperature  DP - Dew Point  RH - Relative Humidity
WIND - Wind Direction/Speed PRES - Barometric Pressure VSB - Visibility
WCI - Wind Chill Index E13G22 Wind - East Wind 13 mph/Gusts of 22 mph